Skip Page Navigation
NASA JPL Caltech
NASA Logo - Jet Propulsion Laboratory + View the NASA Portal
+ Near-Earth Object (NEO) Program
Search JPL
JPL Home Earth Solar System Stars & Galaxies Technology
JPL Solar System Dynamics
BODIES ORBITS EPHEMERIDES TOOLS PHYSICAL DATA DISCOVERY FAQ SITE MAP
JPL Small-Body Database Browser
Search: [ help ]  
98127 Vilgusova (2000 SP24)
Classification: Main-belt Asteroid          SPK-ID: 2098127
Ephemeris | Orbit Diagram | Orbital Elements | Physical Parameters | Discovery Circumstances ]

[ show orbit diagram ]
Orbital Elements at Epoch 2456400.5 (2013-Apr-18.0) TDB
Reference: JPL 1 (heliocentric ecliptic J2000)
 Element Value Uncertainty (1-sigma)   Units 
e .1810908763708509 6.1572e-08  
a 2.42265012711281 2.3291e-08 AU
q 1.983930292453997 1.4596e-07 AU
i 3.863994997710101 9.7641e-06 deg
node 308.05042539 0.00011082 deg
peri 128.2185549173668 0.00011689 deg
M 78.37619470292407 3.5678e-05 deg
tp 2456100.641648914333
(2012-Jun-22.14164891)
0.00013395 JED
period 1377.31879941363
3.77
1.9862e-05
5.438e-08
d
yr
n .2613773950905657 3.7693e-09 deg/d
Q 2.861369961771622 2.7509e-08 AU
  Orbit Determination Parameters
   # obs. used (total)      304  
   data-arc span      6988 days (19.13 yr)  
   first obs. used      1994-02-11  
   last obs. used      2013-03-31  
   planetary ephem.      DE405  
   SB-pert. ephem.      SB405-CPV-2  
   condition code      0  
   fit RMS      .55323  
   data source      ORB  
   producer      Otto Matic  
   solution date      2013-Apr-29 18:15:58  

Additional Information
 Earth MOID = 1.00128 AU 
 T_jup = 3.487 
[ show covariance matrix ]

Ephemeris | Orbit Diagram | Orbital Elements | Physical Parameters | Discovery Circumstances ]

Physical Parameter Table
Parameter Symbol Value Units Sigma Reference Notes
absolute magnitude H 16.3 mag n/a MPC47941  

98127 Vilgusová           Discovered 2000 Sept. 24 by L. Sarounová and P. Pravec at Ondrejov.
Hedvika Vilgusová (1946-2007) was an illustrator of books of tales that have been published in several European countries. Her great empathy for a child's soul has resulted in her illustrations having a very positive charge of humanity.
NOTE: some special characters may not display properly (any characters within {} are an attempt to place the proper accent above a character)
Reference: 20080819/MPCPages.arcLast Updated: 2008-08-25
Ephemeris | Orbit Diagram | Orbital Elements | Physical Parameters | Discovery Circumstances ]
ABOUT SSD CREDITS/AWARDS PRIVACY/COPYRIGHT GLOSSARY LINKS
FirstGov 2013-May-24 08:16 UT
(server date/time)  
NASA Home Page
Site Manager:   Donald K. Yeomans
Webmaster  Alan B. Chamberlin